Sanford, FL

10:50 AM EST on December 08, 2016 (GMT -0500)
Orlando Sanford

Weather History for KSFB - October, 2012

Change the Weather History Date:

Monday, October 29, 2012

  Actual Average Record
Temperature  
Mean Temperature 59 °F -  
Max Temperature 68 °F 80 °F 91 °F (1980)
Min Temperature 50 °F 60 °F 41 °F (2008)
Degree Days  
Heating Degree Days 6    
Growing Degree Days 9 (Base 50)    
Moisture  
Dew Point 40 °F    
Average Humidity 55    
Maximum Humidity 78    
Minimum Humidity 28    
Precipitation  
Precipitation 0.00 in - - ()
Sea Level Pressure  
Sea Level Pressure 29.79 in    
Wind  
Wind Speed 15 mph (WNW)    
Max Wind Speed 20 mph    
Max Gust Speed 25 mph    
Visibility 10 miles    
Events      
Averages and records for this station are not official NWS values.
T = Trace of Precipitation, MM = Missing Value Source: NWS Daily Summary

Daily Weather History Graph

Daily Weather History Graph

Search for Another Location

Airport or City:

Trip Planner

Search our weather history database for the weather conditions in past years. The results will help you decide how hot, cold, wet, or windy it might be!

Date:

Astronomy

Oct. 29, 2012 Rise Set
Actual Time 7:35 AM EDT 6:41 PM EDT
Civil Twilight 7:11 AM EDT 7:05 PM EDT
Nautical Twilight 6:43 AM EDT 7:33 PM EDT
Astronomical Twilight 6:15 AM EDT 8:01 PM EDT
Moon 6:36 PM EDT (10/29) 7:22 AM EDT (10/29)
Length of Visible Light 11h 54m
Length of Day
11h 06m
Full, 100% of the Moon is Illuminated
Oct 29
Full
Oct 29
Full
Nov 6
Last Quarter
Nov 13
New
Nov 20
First Quarter

Hourly Weather History & Observations

Time (EDT) Temp. Dew Point Humidity Pressure Visibility Wind Dir Wind Speed Gust Speed Precip Events Conditions
12:53 AM 57.9 °F 51.1 °F 78% 29.79 in 10.0 mi WNW 19.6 mph 23.0 mph N/A   Overcast
1:51 AM 57.2 °F 48.2 °F 72% 29.78 in 10.0 mi NW 12.7 mph 21.9 mph N/A   Overcast
1:53 AM 57.0 °F 48.9 °F 74% 29.78 in 10.0 mi WNW 13.8 mph - N/A   Overcast
2:53 AM 57.0 °F 46.9 °F 69% 29.78 in 10.0 mi WNW 15.0 mph - N/A   Overcast
3:53 AM 57.0 °F 45.0 °F 64% 29.78 in 10.0 mi NW 13.8 mph 19.6 mph N/A   Overcast
5:53 AM 53.1 °F 44.1 °F 71% 29.78 in 10.0 mi WNW 13.8 mph - N/A   Clear
6:53 AM 51.1 °F 43.0 °F 74% 29.79 in 10.0 mi WNW 11.5 mph 20.7 mph N/A   Clear
7:53 AM 50.0 °F 42.1 °F 74% 29.82 in 10.0 mi NW 17.3 mph 25.3 mph N/A   Clear
8:53 AM 51.1 °F 41.0 °F 68% 29.84 in 10.0 mi WNW 16.1 mph 24.2 mph N/A   Clear
9:53 AM 53.1 °F 39.0 °F 59% 29.86 in 10.0 mi NW 18.4 mph 25.3 mph N/A   Clear
10:53 AM 57.9 °F 39.9 °F 51% 29.85 in 10.0 mi WNW 15.0 mph 24.2 mph N/A   Clear
11:53 AM 60.1 °F 39.0 °F 46% 29.83 in 10.0 mi WNW 17.3 mph 21.9 mph N/A   Clear
1:53 PM 64.0 °F 37.9 °F 38% 29.78 in 10.0 mi West 15.0 mph 21.9 mph N/A   Clear
2:53 PM 66.0 °F 35.1 °F 32% 29.75 in 10.0 mi West 17.3 mph 23.0 mph N/A   Clear
3:53 PM 68.0 °F 34.0 °F 28% 29.73 in 10.0 mi West 13.8 mph 20.7 mph N/A   Clear
4:53 PM 66.9 °F 35.1 °F 31% 29.72 in 10.0 mi West 13.8 mph 21.9 mph N/A   Clear
5:53 PM 64.9 °F 35.1 °F 33% 29.72 in 10.0 mi West 15.0 mph - N/A   Clear
6:53 PM 61.0 °F 37.9 °F 42% 29.74 in 10.0 mi West 13.8 mph - N/A   Clear
7:53 PM 59.0 °F 39.9 °F 49% 29.77 in 10.0 mi West 16.1 mph 21.9 mph N/A   Clear
8:53 PM 57.0 °F 39.9 °F 53% 29.79 in 10.0 mi West 11.5 mph - N/A   Clear
9:53 PM 55.0 °F 37.9 °F 53% 29.82 in 10.0 mi WNW 9.2 mph - N/A   Clear
10:53 PM 55.0 °F 36.0 °F 49% 29.83 in 10.0 mi WNW 10.4 mph - N/A   Clear
11:53 PM 54.0 °F 34.0 °F 47% 29.84 in 10.0 mi WNW 12.7 mph - N/A   Clear